Location: Bush Observatory
(40.2653°N, 94.3194°W)
Time: 17:05:10
(UTC-05:00)

Iridium 13 - Visible Passes

Search period start: 27 June 2016 00:00
Search period end: 07 July 2016 00:00
Orbit: 776 x 779 km, 86.4° (Epoch: 27 June)

Date Brightness Start Highest point End Pass type
(mag) Time Alt. Az. Time Alt. Az. Time Alt. Az.
27 Jun 6.2 03:25:27 10° N 03:30:33 52° E 03:34:27 17° SSE visible
27 Jun 7.1 05:07:26 10° NW 05:10:46 17° W 05:14:07 10° WSW visible
28 Jun 7.2 02:52:22 10° NNE 02:56:51 28° E 03:00:38 13° SE visible
28 Jun 6.4 04:32:57 10° NNW 04:37:32 31° W 04:41:05 15° SW visible
29 Jun 7.9 02:19:56 10° NE 02:23:02 16° ENE 02:26:07 10° ESE visible
29 Jun 5.6 03:59:02 10° N 04:04:10 58° W 04:07:18 23° SSW visible
30 Jun 5.6 03:25:26 10° N 03:30:41 76° E 03:33:32 27° SSE visible
30 Jun 7.5 05:08:49 10° NW 05:10:38 12° WNW 05:12:28 10° W visible
01 Jul 6.5 02:52:09 10° NNE 02:57:04 40° E 02:59:46 23° SE visible
01 Jul 6.9 04:33:32 10° NNW 04:37:28 22° W 04:40:13 15° WSW visible
02 Jul 7.4 02:19:16 10° NNE 02:23:19 22° ENE 02:26:02 15° ESE visible
02 Jul 6.1 03:59:19 10° NNW 04:04:10 40° W 04:06:30 26° SW visible
03 Jul 8.0 01:47:23 10° NE 01:49:27 12° ENE 01:51:29 10° E visible
03 Jul 5.4 03:25:32 10° N 03:30:46 75° W 03:32:46 38° SSW visible
04 Jul 5.9 02:52:03 10° N 02:57:13 59° E 02:59:04 37° SSE visible
04 Jul 7.3 04:34:25 10° NW 04:37:22 15° WNW 04:39:31 12° WSW visible
05 Jul 6.9 02:18:55 10° NNE 02:23:34 32° E 02:25:22 25° ESE visible
05 Jul 6.6 03:59:46 10° NNW 04:04:09 28° W 04:05:50 23° WSW visible
06 Jul 7.6 01:46:17 10° NNE 01:49:46 18° ENE 01:51:42 15° ESE visible
06 Jul 5.8 03:25:45 10° NNW 03:30:48 51° W 03:32:08 41° SW visible
